Weather History for Hettinger, ND

Change the Weather History Date:

Sunday, December 22, 2013

  Actual Average Record
Temperature  
Mean Temperature -10 °F -  
Max Temperature 0 °F 28 °F 44 °F (2005)
Min Temperature -20 °F 6 °F -20 °F (2013)
Degree Days  
Heating Degree Days 75 48  
Month to date heating degree days 1256 1012  
Since 1 July heating degree days 3280 3142  
Moisture  
Dew Point -12 °F    
Average Humidity 80    
Maximum Humidity 83    
Minimum Humidity 71    
Precipitation  
Precipitation T in 0.01 in 0.12 in (2008)
Month to date precipitation 0.08 0.20  
Year to date precipitation 24.81 15.99  
Sea Level Pressure  
Sea Level Pressure 30.30 in    
Wind  
Wind Speed 6 mph (NW)    
Max Wind Speed 21 mph    
Max Gust Speed 23 mph    
Visibility 9 miles    
Events      
T = Trace of Precipitation, MM = Missing Value Source: NWS Daily Summary

Daily Weather History Graph

Daily Weather History Graph

Search for Another Location

Airport:

Trip Planner

Search our weather history database for the weather conditions in past years. The results will help you decide how hot, cold, wet, or windy it might be!

Date:

Astronomy

Dec. 22, 2013 Rise Set
Actual Time 7:30 AM MST 4:08 PM MST
Civil Twilight 6:55 AM MST 4:43 PM MST
Nautical Twilight 6:17 AM MST 5:21 PM MST
Astronomical Twilight 5:41 AM MST 5:57 PM MST
Moon 9:39 PM MST (12/22) 10:13 AM MST (12/22)
Length of Visible Light 9h 47m
Length of Day
8h 38m
Waning Gibbous, 76% of the Moon is Illuminated
Dec 22
Waning Gibbous
Dec 25
Last Quarter
Jan 1
New
Jan 7
First Quarter
Jan 15
Full

Hourly Weather History & Observations

Time (MST) Temp. Windchill Dew Point Humidity Pressure Visibility Wind Dir Wind Speed Gust Speed Precip Events Conditions
12:08 AM -7.1 °F - -9.9 °F 87% 29.98 in 10.0 mi Calm Calm - N/A   Overcast
12:30 AM -7.1 °F - -11.0 °F 83% 29.97 in 10.0 mi Calm Calm - N/A   Mostly Cloudy
12:53 AM -9.9 °F - -14.1 °F 82% 30.20 in 10.0 mi Calm Calm - N/A   Partly Cloudy
1:18 AM -16.1 °F -28.6 °F -20.0 °F 82% 29.99 in 10.0 mi WNW 4.6 mph - N/A   Mostly Cloudy
1:31 AM -11.0 °F -22.8 °F -15.0 °F 83% 29.99 in 10.0 mi WNW 4.6 mph - N/A   Overcast
1:53 AM -9.9 °F -19.2 °F -14.1 °F 82% 30.22 in 10.0 mi WNW 3.5 mph - N/A   Overcast
2:46 AM -5.1 °F -13.6 °F -9.0 °F 83% 30.01 in 10.0 mi SW 3.5 mph - N/A   Overcast
2:53 AM -5.1 °F - -9.0 °F 83% 30.22 in 10.0 mi Calm Calm - N/A   Overcast
3:53 AM -5.1 °F -17.6 °F -9.0 °F 83% 30.25 in 10.0 mi WNW 5.8 mph - N/A   Overcast
4:10 AM -4.0 °F -17.8 °F -9.0 °F 79% 30.03 in 10.0 mi WNW 6.9 mph - N/A   Overcast
4:53 AM -2.9 °F -18.8 °F -7.1 °F 82% 30.25 in 10.0 mi NW 9.2 mph - N/A   Overcast
5:33 AM -2.9 °F -15.0 °F -8.0 °F 79% 30.05 in 8.0 mi WNW 5.8 mph - N/A   Overcast
5:53 AM -2.9 °F -19.8 °F -7.1 °F 82% 30.26 in 10.0 mi NW 10.4 mph - N/A   Overcast
6:53 AM -5.1 °F -15.8 °F -9.0 °F 83% 30.29 in 10.0 mi NW 4.6 mph - N/A   Overcast
7:53 AM -9.0 °F -22.3 °F -13.0 °F 83% 30.31 in 10.0 mi NNW 5.8 mph - N/A   Overcast
8:53 AM -9.0 °F -22.3 °F -13.0 °F 83% 30.33 in 10.0 mi WNW 5.8 mph - N/A   Partly Cloudy
9:53 AM -2.9 °F -19.8 °F -8.0 °F 79% 30.35 in 5.0 mi WNW 10.4 mph - N/A   Haze
10:53 AM -0.0 °F -20.1 °F -7.1 °F 72% 30.34 in 5.0 mi NW 16.1 mph - 0.00 in   Haze
11:53 AM -0.0 °F -19.4 °F -7.1 °F 72% 30.35 in 10.0 mi NW 15.0 mph - N/A   Overcast
12:53 PM -0.0 °F -16.3 °F -7.1 °F 72% 30.37 in 10.0 mi NW 10.4 mph - N/A   Overcast
1:53 PM -0.9 °F -17.4 °F -8.0 °F 72% 30.39 in 10.0 mi NW 10.4 mph - N/A   Clear
2:53 PM -2.0 °F -15.4 °F -9.0 °F 72% 30.40 in 10.0 mi NNW 6.9 mph - N/A   Clear
3:53 PM -5.1 °F -15.8 °F -11.0 °F 76% 30.45 in 10.0 mi North 4.6 mph - N/A   Mostly Cloudy
4:43 PM -9.0 °F - -13.0 °F 83% 30.24 in 8.0 mi Calm Calm - N/A   Scattered Clouds
4:53 PM -9.9 °F - -14.1 °F 82% 30.48 in 10.0 mi Calm Calm - N/A   Partly Cloudy
5:49 PM -14.8 °F - -18.4 °F 84% 30.27 in 7.0 mi Calm Calm - N/A   Overcast
5:53 PM -13.0 °F - -18.0 °F 78% 30.52 in 7.0 mi Calm Calm - N/A   Overcast
6:24 PM -13.0 °F -25.1 °F -18.0 °F 78% 30.29 in 9.0 mi West 4.6 mph - N/A   Overcast
6:53 PM -11.0 °F - -16.1 °F 78% 30.54 in 4.0 mi Calm Calm - 0.00 in   Haze
7:53 PM -9.0 °F -20.4 °F -14.1 °F 79% 30.56 in 7.0 mi NW 4.6 mph - N/A   Overcast
8:53 PM -11.0 °F -24.6 °F -16.1 °F 78% 30.58 in 10.0 mi West 5.8 mph - N/A   Overcast
9:53 PM -9.9 °F -21.5 °F -15.0 °F 78% 30.58 in 10.0 mi NW 4.6 mph - N/A   Overcast
10:53 PM -14.1 °F - -20.0 °F 75% 30.59 in 10.0 mi Calm Calm - N/A   Clear
11:53 PM -16.1 °F - -20.0 °F 82% 30.60 in 10.0 mi Calm Calm - N/A   Clear